Погода в Снегиревке

Россия / Санкт-Петербург и Ленинградская область     60°33′13″N   30°17′51″E
темп.,
°C
ветер,
м/с
пор.,
м/с
влажн.,
%
обл.,
%
осадки,
мм/ч
давл.,
гПа
погр.,
м
4 марта, чт
чт400:00−1сз4128279 1.8 1001837
03:00−4сз5128142 1.8 1002564
06:00−5сз4109016 0.0 1001421
09:00−6сз489147 0.0 1002372
12:00−4ссз378293 0.1 1003581
15:00−3сз467797 0.2 1004884
18:00−3сз4875100 0.1 10041032
21:00−6сз398769 0.1 1004532
5 марта, пт
пт500:00−6сз389097 0.0 1005483
03:00−7сз379296 0.0 1006393
06:00−8сз379192 0.1 1007380
09:00−8ссз368895 0.1 1009431
12:00−6ссз3579100 0.0 1011548
15:00−4сз356897 0.1 1013834
18:00−5ссз367889 0.2 1014805
21:00−7сз278662 0.2 1016337
6 марта, сб
сб600:00−8сз269180 0.0 1017249
03:00−9зсз259340 0.0 1017159
06:00−10з26930 0.0 1016171
09:00−8зюз49855 0.0 1015412
12:00−4юз6117338 0.0 1011940
15:00−5юз8158869 0.4 10061046
18:00−2юз81891100 2.1 9991422
21:00−2зюз81693100 6.4 9931059
7 марта, вс
вс700:00−1зсз61296100 2.9 991967
03:00−8з31077100 3.3 992500
06:00−8з4108039 0.1 9911129
09:00−9з5117264 0.1 9901070
12:00−6з478099 0.3 9881003
15:00−6ссз2372100 1.1 989782
18:00−8ссв5984100 0.8 9921101
21:00−9с5118397 0.8 997937
8 марта, пн
пн800:00−11ссз5119296 0.1 1000739
03:00−13ссз5108998 0.3 1003788
06:00−14с51190100 0.1 1004827
09:00−15с51189100 0.3 1008636
12:00−14с51084100 0.1 1011621
15:00−11с5981100 0.1 1014687
18:00−12с41086100 0.0 1016690
21:00−14с41091100 0.1 1019518